Location: South Hanningfield
(51.6333°N, 0.5167°E)
Time: 01:01:09
(UTC+00:00)

Daily predictions for brighter satellites

Satellite Brightness Start Highest point End
(mag) Time Altitude Azimuth Time Altitude Azimuth Time Altitude Azimuth
CENTAUR R/B 4.4 02:05:13 29° NNE 02:05:13 29° NNE 02:09:42 10° NE
ACS3 Solar Sail 4.0 02:00:46 10° NE 02:03:45 18° ENE 02:03:45 18° ENE
ADEOS Rocket 4.4 02:33:11 10° NNE 02:38:45 38° E 02:38:45 38° E
Cosmos 2219 Rocket 4.0 02:55:05 27° E 02:55:05 27° E 02:58:54 10° NE
CZ-2D R/B 4.4 03:13:23 10° N 03:14:23 16° N 03:14:23 16° N
USA 267 3.7 03:14:10 10° ENE 03:20:18 53° SE 03:20:18 53° SE
Cosmos 1980 Rocket 4.3 03:27:56 17° N 03:27:56 17° N 03:29:47 10° NNE
H-2A R/B 3.8 03:26:11 10° NNE 03:28:04 23° NNE 03:28:04 23° NNE
Cosmos 2278 Rocket 3.7 03:29:48 27° N 03:31:38 33° NE 03:36:42 10° ESE
USA 238 DEB 4.0 03:33:04 55° N 03:33:04 55° N 03:38:49 10° NE
USA 238 4.0 03:33:10 55° N 03:33:10 55° N 03:38:56 10° NE
Cosmos 2333 Rocket 3.1 03:39:31 42° NNE 03:39:31 42° NNE 03:43:20 10° NNE
ADEOS II 4.0 03:38:21 10° N 03:39:55 20° N 03:39:55 20° N
Lacrosse 5 rocket 4.0 03:46:58 14° ENE 03:46:58 14° ENE 03:47:28 10° ENE
COSMOS 2455 3.1 03:45:06 64° NNE 03:45:06 64° NNE 03:50:12 10° NE
Cosmos 2298 Rocket 4.5 03:46:57 59° E 03:46:57 59° E 03:51:41 10° NNE
ACS3 Solar Sail 1.8 03:42:40 10° NNE 03:47:53 69° N 03:47:53 69° N
Resurs 1-4 Rocket 4.2 03:47:12 10° N 03:48:13 15° N 03:48:13 15° N
CENTAUR R/B 4.0 03:52:18 29° NNW 03:54:58 36° N 04:02:47 10° ENE
Cosmos 2360 Rocket 2.5 03:59:08 55° N 03:59:08 55° N 04:03:42 10° NNE
Cosmos 2322 Rocket 2.7 03:59:32 49° N 03:59:32 49° N 04:03:54 10° NNE
USA 234 3.2 03:52:37 10° SE 03:58:53 62° SSW 03:58:53 62° SSW
SL-16 R/B 3.3 04:06:02 32° NNW 04:06:02 32° NNW 04:09:45 10° NNE
Cosmos 44 Rocket 3.5 04:05:02 72° E 04:05:02 72° E 04:09:46 10° SE
Cosmos 1943 Rocket 2.8 04:06:17 29° N 04:08:53 53° NE 04:14:16 10° SE
H-2A R/B 4.4 04:08:14 10° NNE 04:11:15 42° ENE 04:11:15 42° ENE
Okean 1-7 3.6 04:13:09 52° NE 04:13:09 52° NE 04:16:40 10° NNE
ARGOS 3.1 04:09:06 10° NNE 04:14:34 85° ESE 04:16:18 46° S
PAYLOAD A 4.4 04:09:57 10° NNE 04:15:22 67° ESE 04:20:29 11° S
Cosmos 1140 Rocket 3.5 04:15:56 52° N 04:17:09 77° ENE 04:22:15 10° SSE
Timation 2 Rocket 4.1 04:14:48 26° NNW 04:18:52 79° ENE 04:25:19 10° SE
CZ-2C R/B 2.4 04:14:54 10° NNE 04:19:55 83° ESE 04:21:32 44° S
Cosmos 1809 Rocket 4.4 04:18:18 10° S 04:24:24 84° E 04:30:32 10° NNE
ADEOS Rocket 3.3 04:18:41 10° N 04:24:53 52° WNW 04:25:40 50° W
NOSS 3-1 (C) 3.5 04:27:25 31° S 04:29:30 55° SE 04:35:06 10° NE
Iridium 4 Rocket 4.3 04:26:36 10° N 04:30:47 40° E 04:34:44 10° SSE
SJ 16-02 3.8 04:27:47 10° N 04:30:56 19° NE 04:34:03 10° E
Cosmos 2100 Rocket 3.8 04:24:58 10° N 04:31:10 86° W 04:37:19 10° S
Cosmos 2219 Rocket 2.2 04:36:49 53° W 04:37:41 59° NW 04:43:20 10° NNE
SL-24 R/B - RUBIN 2 3.8 04:39:23 54° WSW 04:40:31 76° NW 04:45:25 10° NE
TIMED 4.3 04:40:17 56° NNW 04:41:10 88° ENE 04:45:26 10° SSE
Cosmos 1707 Rocket 4.1 04:42:43 43° NNW 04:42:43 43° NNW 04:45:59 10° N
COSMOS 2428 2.9 04:41:55 10° SSW 04:47:35 72° ESE 04:53:16 10° NNE
USA 59 Rocket -0.6 04:50:47 65° SE 04:50:49 65° SE 04:53:46 10° NE
SL-08 RB Rocket 3.6 04:46:59 10° N 04:51:31 64° WNW 04:53:29 32° SW
Cosmos 1459 Rocket 3.9 04:46:01 10° NNW 04:52:22 70° W 04:58:39 10° S
Cosmos 1864 Rocket 4.4 04:46:58 10° N 04:53:17 86° W 04:59:36 10° S
Cosmos 2322 3.6 04:50:01 14° SSW 04:55:01 90° ESE 05:00:44 10° NNE
FengYun 1-2 T 4.3 04:50:55 10° NNE 04:56:30 79° ESE 05:02:06 10° SSW
CZ-2D R/B 4.2 04:55:01 10° NNW 04:55:38 11° NNW 04:55:38 11° NNW
Cosmos 407 Rocket 3.4 04:54:46 15° NNW 04:59:06 89° ENE 05:04:13 10° SSE
COSMO-SKYMED 1 2.9 04:55:34 10° SSE 04:59:38 62° ENE 05:03:44 10° N
Meteor 2-21 4.3 04:53:59 10° SSW 05:00:04 74° WNW 05:06:10 10° N
SKYMED 2 3.5 04:56:35 10° SSE 05:00:56 86° ENE 05:05:18 10° NNW
Cosmos 1727 Rocket 4.0 04:56:38 10° SSW 05:02:41 54° WNW 05:08:48 10° N
Cosmos 1725 Rocket 3.9 04:56:28 10° NNW 05:02:49 82° W 05:09:08 10° S
Cosmos 2228 Rocket 3.3 05:03:28 43° W 05:03:46 43° WNW 05:08:01 10° N
USA 267 3.2 04:57:16 10° ENE 05:03:48 74° NNW 05:07:39 27° W
H-2A R/B 3.6 05:06:27 10° N 05:08:34 17° NW 05:08:34 17° NW
Cosmos 1802 Rocket 4.0 05:04:21 10° NNW 05:10:42 67° W 05:16:55 10° S
Cosmos 1269 Rocket 4.5 05:09:27 30° WNW 05:11:07 38° WSW 05:15:57 10° S
Cosmos 1980 Rocket 4.3 05:09:40 10° NNW 05:11:23 11° NNW 05:13:10 10° N
NOSS 3-1 (A) 3.8 05:09:06 10° SSW 05:13:41 50° SE 05:19:13 10° NE
Cosmos 2233 Rocket 4.0 05:07:40 10° N 05:14:03 86° E 05:20:21 10° S
Cosmos 2278 Rocket 2.2 05:11:40 17° NW 05:16:04 61° WSW 05:21:37 10° SSE
Cosmos 1328 3.5 05:13:14 10° SSW 05:16:50 58° WNW 05:20:27 10° N
Cosmos 2251 Rocket 3.7 05:12:33 10° NNW 05:17:56 76° ENE 05:23:17 10° SSE
Cosmos 1703 Rocket 3.4 05:13:54 10° SSW 05:18:14 72° WNW 05:22:39 10° N
NOSS 2-1 (E) 2.7 05:18:53 26° SW 05:20:37 88° NW 05:23:41 10° NE
Cosmos 1939 Rocket 3.0 05:17:09 10° N 05:20:49 43° WNW 05:23:42 15° SW
Lacrosse 5 rocket 1.8 05:20:39 29° NW 05:21:26 33° N 05:24:33 10° ENE
Cosmos 2173 Rocket 4.3 05:15:56 10° NNW 05:21:34 41° W 05:27:11 10° SSW
ADEOS II 4.1 05:20:03 10° NNW 05:20:43 11° NNW 05:20:43 11° NNW
Meteor 2-16 Rocket 4.4 05:16:34 10° SSW 05:22:40 80° W 05:28:50 10° N
Cosmos 2333 Rocket 3.5 05:21:33 20° NW 05:22:53 22° NNW 05:27:16 10° NNE
USA-17 4.1 05:22:08 39° WNW 05:23:09 74° SW 05:26:25 10° SE
Cosmos 2237 Rocket 2.8 05:18:05 10° SSW 05:23:39 61° ESE 05:29:14 10° NE
SL-08 R/B 4.4 05:18:51 10° NNW 05:24:56 70° W 05:31:02 10° S
BlueWalker 3 3.3 05:27:40 20° SW 05:28:03 20° SW 05:30:44 10° S
Cosmos 2292 Rocket 3.8 05:24:22 10° SSW 05:28:41 82° W 05:34:21 10° N
USA 276 4.3 05:29:39 10° SSW 05:29:39 10° SSW 05:29:52 10° SSW
COSMOS 2455 3.9 05:28:15 21° WNW 05:30:53 29° NNW 05:36:05 10° NNE
ACS3 Solar Sail 2.9 05:26:41 10° N 05:30:57 21° NW 05:32:02 20° WNW
Meteor 1-24 Rocket 3.7 05:27:44 10° SSW 05:33:26 60° WNW 05:38:56 10° N
Cosmos 2369 Rocket 3.5 05:28:26 10° NNW 05:33:44 39° NE 05:39:02 10° ESE
Helios 1A Rocket 2.8 05:30:53 10° S 05:34:05 39° W 05:36:22 17° NW
CZ-4 R/B 3.8 05:30:26 10° NNE 05:35:21 70° WNW 05:40:09 10° SSW
Cosmos 1782 Rocket 3.6 05:32:56 10° NNW 05:37:16 57° W 05:41:33 10° S
Cosmos 2360 Rocket 3.6 05:40:55 17° WNW 05:43:04 20° NNW 05:47:15 10° NNE
Cosmos 2322 Rocket 3.7 05:41:20 16° WNW 05:43:26 19° NNW 05:47:29 10° NNE
Cosmos 2123 Rocket 4.1 05:38:11 10° SSW 05:44:11 50° WNW 05:50:13 10° N
Meteor 2-5 Rocket 3.9 05:38:49 10° SSW 05:44:37 55° WNW 05:50:23 10° N
NOAA 12 4.1 05:39:19 10° NNE 05:44:37 69° WNW 05:49:54 10° SSW
Cosmos 1420 Rocket 4.4 05:40:37 10° SSW 05:45:50 68° ESE 05:51:07 10° NNE
Gbstr 26 Del rocket 3.8 05:41:19 13° WSW 05:45:53 76° SSE 05:52:12 10° ENE
CENTAUR R/B 3.6 05:39:25 10° NW 05:47:08 61° NE 05:56:14 10° ESE
Okean 1-7 4.4 05:49:34 17° WNW 05:49:56 17° WNW 05:52:48 10° NNW
SL-16 R/B 4.0 05:47:53 12° NW 05:50:12 14° NNW 05:53:17 10° N
TiPS 4.3 05:48:39 10° SW 05:51:05 84° SE 05:53:24 10° NE
Cosmos 1943 Rocket 2.9 05:47:50 11° NW 05:52:23 32° WSW 05:57:11 10° SSW
Cosmos 2016 Rocket 4.4 05:46:57 10° NNW 05:52:51 41° W 05:58:43 10° SSW
ARGOS 4.4 05:50:16 10° N 05:54:11 21° NW 05:57:45 11° W
Cosmos 1812 2.4 05:53:22 10° N 05:56:19 66° ENE 05:59:13 10° SSE
CZ-2C R/B 3.8 05:53:56 10° NNW 05:57:24 19° NW 06:00:46 11° W
Cosmos 1300 Rocket 4.2 05:53:46 10° NNW 05:57:40 33° W 06:01:31 10° SSW
Cosmos 374 Rocket 4.4 05:57:59 10° WSW 06:01:47 63° NW 06:06:20 10° NE
Cosmos 2346 Rocket 4.4 05:56:41 10° SSW 06:02:51 80° WNW 06:09:00 10° N
NOSS 2-1 (C) 3.5 06:00:52 13° W 06:03:21 32° NW 06:06:06 10° NNE
NOSS 2-1 (D) 3.6 06:04:54 12° W 06:07:22 29° NW 06:10:02 10° NNE
SJ 16-02 1.3 06:05:15 10° NNW 06:09:33 69° WSW 06:13:48 10° SSE
Iridium 4 Rocket 4.1 06:06:49 10° NNW 06:10:18 23° W 06:13:38 10° SW
Aureole 3 Rocket 3.3 06:06:30 10° NNW 06:10:36 68° W 06:16:13 10° S
Okean 1 Rocket 4.3 06:06:42 10° N 06:10:53 44° ENE 06:15:02 10° SSE
Cosmos 2061 Rocket 4.3 06:07:29 10° NNW 06:13:16 42° W 06:19:01 10° SSW
CBERS-1 4.1 06:09:36 10° NNE 06:14:46 90° SE 06:19:53 10° SSW
SWARM C 4.5 06:14:26 10° S 06:17:43 65° W 06:21:03 10° N
SWARM A 4.1 06:14:30 10° S 06:17:48 77° W 06:21:08 10° N
IRS-1D 4.2 06:14:31 10° N 06:18:53 31° WNW 06:23:11 10° WSW
Cosmos 1190 Rocket 4.4 06:13:56 10° NW 06:18:57 45° WSW 06:23:54 10° S
Cosmos 676 Rocket 4.0 06:14:48 10° NNW 06:20:02 68° WSW 06:25:12 10° SSE
NOSS 3-1 (C) 3.7 06:15:35 10° W 06:20:25 42° NNW 06:26:23 10° NE
Cosmos 1378 Rocket 3.7 06:16:09 10° S 06:20:25 77° E 06:24:43 10° NNE
Cosmos 1869 3.5 06:18:04 10° NNW 06:21:19 36° W 06:24:33 10° SSW
SL-16 R/B 3.3 06:16:26 10° S 06:21:55 52° ESE 06:27:27 10° NE
Cosmos 2219 Rocket 3.7 06:18:56 10° WNW 06:22:51 19° NNW 06:26:48 10° NNE
In-Cosmos 22 Rocket 4.3 06:17:04 10° SSW 06:22:53 85° WNW 06:28:46 10° NNE
Cosmos 2056 Rocket 3.7 06:21:19 10° SSW 06:26:44 88° ESE 06:32:10 10° NNE
Okean 2 Rocket 3.3 06:24:14 10° N 06:28:38 78° E 06:32:59 10° SSE
Cosmos 371 Rocket 3.5 06:25:29 10° NNW 06:30:12 53° WSW 06:34:53 10° S
NOSS 0 Rocket 4.3 06:24:54 10° WSW 06:30:45 44° NW 06:36:39 10° NNE
COSMOS 2428 3.6 06:27:24 10° WSW 06:32:20 29° NW 06:37:18 10° NNE
